"read_dt","SO2 (ppb)","flags","PMT voltage (V)","lamp voltage (V)","lamp intensity (Hz)","internal temp (C)","react chamber temp (C)","sample flow (l/min)","pres (mmHg)","SO2 bkg (ppb)","SO2 coefficient"
2015-12-26 00:00:00,1823E-3,5C000400,-0724,0833,12199,020.7,045.2,0.268,752.6,01.17,0.508
2015-12-26 00:01:00,2005E-3,5C000400,-0724,0833,12197,020.7,045.2,0.268,752.6,01.17,0.508
2015-12-26 00:02:00,1921E-3,5C000400,-0724,0833,11990,020.8,045.2,0.268,752.6,01.17,0.508
2015-12-26 00:03:00,1973E-3,5C000400,-0724,0834,12112,020.7,045.2,0.268,752.6,01.17,0.508
2015-12-26 00:04:00,1936E-3,5C000400,-0724,0834,12153,020.8,045.3,0.268,752.6,01.17,0.508
2015-12-26 00:05:00,2020E-3,5C000400,-0724,0833,12191,020.7,045.2,0.268,752.6,01.17,0.508
2015-12-26 00:06:00,1847E-3,5C000400,-0724,0834,12272,020.8,045.3,0.268,752.6,01.17,0.508
2015-12-26 00:07:00,1978E-3,5C000400,-0724,0833,12120,020.8,045.3,0.268,752.7,01.17,0.508
2015-12-26 00:08:00,1950E-3,5C000400,-0724,0833,12231,020.8,045.3,0.268,752.7,01.17,0.508
2015-12-26 00:09:00,2081E-3,5C000400,-0724,0834,12173,020.8,045.2,0.268,752.7,01.17,0.508
2015-12-26 00:10:00,1896E-3,5C000400,-0724,0834,12122,020.8,045.3,0.268,752.6,01.17,0.508
2015-12-26 00:11:00,1847E-3,5C000400,-0724,0833,12308,020.8,045.3,0.268,752.6,01.17,0.508
2015-12-26 00:12:00,2037E-3,5C000400,-0724,0834,12017,020.8,045.3,0.268,752.6,01.17,0.508
2015-12-26 00:13:00,1800E-3,5C000400,-0724,0834,12162,020.8,045.3,0.268,752.5,01.17,0.508
2015-12-26 00:14:00,1855E-3,5C000400,-0724,0834,12102,020.8,045.2,0.268,752.5,01.17,0.508
2015-12-26 00:15:00,1997E-3,5C000400,-0724,0833,12000,020.8,045.2,0.268,752.5,01.17,0.508
2015-12-26 00:16:00,1843E-3,5C000400,-0724,0834,12030,020.8,045.3,0.268,752.5,01.17,0.508
2015-12-26 00:17:00,2002E-3,5C000400,-0724,0833,12065,020.8,045.3,0.268,752.5,01.17,0.508
2015-12-26 00:18:00,1944E-3,5C000400,-0724,0834,12236,020.8,045.2,0.268,752.5,01.17,0.508
2015-12-26 00:19:00,2039E-3,5C000400,-0724,0834,12188,020.8,045.3,0.268,752.4,01.17,0.508
2015-12-26 00:20:00,1908E-3,5C000400,-0724,0833,12183,020.8,045.3,0.268,752.5,01.17,0.508
2015-12-26 00:21:00,2055E-3,5C000400,-0724,0834,12341,020.8,045.3,0.268,752.4,01.17,0.508
2015-12-26 00:22:00,2009E-3,5C000400,-0724,0833,12183,020.8,045.3,0.268,752.5,01.17,0.508
2015-12-26 00:23:00,1947E-3,5C000400,-0724,0833,12159,020.8,045.2,0.268,752.5,01.17,0.508
2015-12-26 00:24:00,1959E-3,5C000400,-0724,0834,12117,020.8,045.2,0.268,752.5,01.17,0.508
2015-12-26 00:25:00,1915E-3,5C000400,-0724,0833,12271,020.8,045.2,0.268,752.5,01.17,0.508
2015-12-26 00:26:00,1875E-3,5C000400,-0724,0833,12068,020.8,045.2,0.268,752.6,01.17,0.508
2015-12-26 00:27:00,2012E-3,5C000400,-0724,0833,12025,020.9,045.2,0.268,752.5,01.17,0.508
2015-12-26 00:28:00,1998E-3,5C000400,-0724,0833,12198,020.8,045.2,0.268,752.5,01.17,0.508
2015-12-26 00:29:00,1949E-3,5C000400,-0724,0834,12131,020.8,045.3,0.268,752.5,01.17,0.508
2015-12-26 00:30:00,1854E-3,5C000400,-0724,0833,12229,020.8,045.3,0.268,752.4,01.17,0.508
2015-12-26 00:31:00,1944E-3,5C000400,-0724,0833,12231,020.9,045.3,0.268,752.4,01.17,0.508
2015-12-26 00:32:00,1774E-3,5C000400,-0724,0834,12189,020.8,045.3,0.268,752.1,01.17,0.508
2015-12-26 00:33:00,1889E-3,5C000400,-0724,0834,12178,020.9,045.2,0.268,752.2,01.17,0.508
2015-12-26 00:34:00,2001E-3,5C000400,-0724,0833,12227,020.9,045.3,0.268,752.1,01.17,0.508
2015-12-26 00:35:00,2022E-3,5C000400,-0724,0833,12071,020.8,045.3,0.268,752.1,01.17,0.508
2015-12-26 00:36:00,1883E-3,5C000400,-0724,0834,12182,020.9,045.2,0.268,752.3,01.17,0.508
2015-12-26 00:37:00,2014E-3,5C000400,-0724,0834,12169,020.8,045.2,0.268,752.2,01.17,0.508
2015-12-26 00:38:00,1874E-3,5C000400,-0724,0833,12147,020.9,045.3,0.268,752.2,01.17,0.508
2015-12-26 00:39:00,2016E-3,5C000400,-0724,0833,12157,020.9,045.2,0.268,752.3,01.17,0.508
2015-12-26 00:40:00,1983E-3,5C000400,-0724,0834,12310,020.9,045.3,0.268,752.3,01.17,0.508
2015-12-26 00:41:00,1933E-3,5C000400,-0724,0833,12209,020.8,045.3,0.268,752.3,01.17,0.508
2015-12-26 00:42:00,1926E-3,5C000400,-0724,0834,12231,020.9,045.3,0.268,752.4,01.17,0.508
2015-12-26 00:43:00,2026E-3,5C000400,-0724,0834,12090,020.9,045.3,0.268,752.5,01.17,0.508
2015-12-26 00:44:00,1947E-3,5C000400,-0724,0833,12137,020.9,045.2,0.268,752.4,01.17,0.508
2015-12-26 00:45:00,2020E-3,5C000400,-0724,0833,12090,020.9,045.2,0.268,752.5,01.17,0.508
2015-12-26 00:46:00,1928E-3,5C000400,-0724,0833,12236,020.9,045.3,0.268,752.5,01.17,0.508
2015-12-26 00:47:00,1903E-3,5C000400,-0724,0833,12086,020.9,045.3,0.268,752.5,01.17,0.508
2015-12-26 00:48:00,1925E-3,5C000400,-0724,0833,12242,020.9,045.2,0.268,752.5,01.17,0.508
2015-12-26 00:49:00,1929E-3,5C000400,-0724,0834,12124,020.9,045.2,0.268,752.4,01.17,0.508
2015-12-26 00:50:00,1928E-3,5C000400,-0724,0833,12032,020.9,045.2,0.268,752.4,01.17,0.508
2015-12-26 00:51:00,1819E-3,5C000400,-0724,0833,12193,020.9,045.2,0.268,752.3,01.17,0.508
2015-12-26 00:52:00,1860E-3,5C000400,-0724,0833,12175,020.9,045.2,0.268,752.3,01.17,0.508
2015-12-26 00:53:00,1898E-3,5C000400,-0724,0832,11920,020.9,045.2,0.268,752.4,01.17,0.508
2015-12-26 00:54:00,2028E-3,5C000400,-0724,0834,12214,020.9,045.2,0.268,752.3,01.17,0.508
2015-12-26 00:55:00,1934E-3,5C000400,-0724,0834,12172,020.9,045.2,0.268,752.3,01.17,0.508
2015-12-26 00:56:00,1873E-3,5C000400,-0724,0834,12111,020.9,045.3,0.268,752.4,01.17,0.508
2015-12-26 00:57:00,1917E-3,5C000400,-0724,0833,12114,020.9,045.3,0.268,752.3,01.17,0.508
2015-12-26 00:58:00,1982E-3,5C000400,-0724,0834,12192,020.9,045.3,0.268,752.4,01.17,0.508
2015-12-26 00:59:00,1938E-3,5C000400,-0724,0833,12121,020.9,045.3,0.268,752.4,01.17,0.508
2015-12-26 01:00:00,1936E-3,5C000400,-0724,0833,12163,020.9,045.2,0.268,752.3,01.17,0.508
2015-12-26 01:01:00,1981E-3,5C000400,-0724,0834,12304,020.9,045.2,0.268,752.5,01.17,0.508
2015-12-26 01:02:00,1801E-3,5C000400,-0724,0834,12266,020.9,045.2,0.268,752.5,01.17,0.508
2015-12-26 01:03:00,1937E-3,5C000400,-0724,0833,12004,020.9,045.2,0.268,752.3,01.17,0.508
2015-12-26 01:04:00,1899E-3,5C000400,-0724,0833,12165,020.9,045.2,0.268,752.5,01.17,0.508
2015-12-26 01:05:00,2012E-3,5C000400,-0724,0833,12168,020.9,045.2,0.268,752.4,01.17,0.508
2015-12-26 01:06:00,1923E-3,5C000400,-0724,0834,12176,020.9,045.3,0.268,752.3,01.17,0.508
2015-12-26 01:07:00,1959E-3,5C000400,-0724,0833,12127,021.0,045.2,0.268,752.4,01.17,0.508
2015-12-26 01:08:00,1910E-3,5C000400,-0724,0833,12131,020.9,045.2,0.268,752.5,01.17,0.508
2015-12-26 01:09:00,1848E-3,5C000400,-0724,0834,12210,020.9,045.2,0.268,752.5,01.17,0.508
2015-12-26 01:10:00,1870E-3,5C000400,-0724,0833,11922,020.9,045.3,0.268,752.5,01.17,0.508
2015-12-26 01:11:00,1845E-3,5C000400,-0724,0834,12188,021.0,045.3,0.268,752.5,01.17,0.508
2015-12-26 01:12:00,1945E-3,5C000400,-0724,0834,12046,020.9,045.3,0.267,752.4,01.17,0.508
2015-12-26 01:13:00,1955E-3,5C000400,-0724,0834,12312,020.9,045.3,0.268,752.3,01.17,0.508
2015-12-26 01:14:00,1923E-3,5C000400,-0724,0834,12198,021.0,045.2,0.268,752.3,01.17,0.508
2015-12-26 01:15:00,2028E-3,5C000400,-0724,0834,12220,020.9,045.2,0.268,752.3,01.17,0.508
2015-12-26 01:16:00,1952E-3,5C000400,-0724,0833,12183,021.0,045.3,0.268,752.2,01.17,0.508
2015-12-26 01:17:00,2050E-3,5C000400,-0724,0834,12194,021.0,045.2,0.268,752.1,01.17,0.508
2015-12-26 01:18:00,1852E-3,5C000400,-0724,0834,12233,020.9,045.3,0.267,752.2,01.17,0.508
2015-12-26 01:19:00,1997E-3,5C000400,-0724,0834,12244,021.0,045.3,0.268,752.2,01.17,0.508
2015-12-26 01:20:00,1900E-3,5C000400,-0724,0833,12116,020.9,045.2,0.268,752.2,01.17,0.508
2015-12-26 01:21:00,1921E-3,5C000400,-0724,0833,12093,021.0,045.3,0.268,752.3,01.17,0.508
2015-12-26 01:22:00,2025E-3,5C000400,-0724,0833,11976,021.0,045.3,0.268,752.2,01.17,0.508
2015-12-26 01:23:00,1864E-3,5C000400,-0724,0834,12288,021.0,045.2,0.268,752.3,01.17,0.508
2015-12-26 01:24:00,1982E-3,5C000400,-0724,0833,12243,021.0,045.3,0.268,752.3,01.17,0.508
2015-12-26 01:25:00,1990E-3,5C000400,-0724,0833,12208,021.0,045.3,0.267,752.2,01.17,0.508
2015-12-26 01:26:00,1876E-3,5C000400,-0724,0833,12052,021.0,045.3,0.268,752.2,01.17,0.508
2015-12-26 01:27:00,1968E-3,5C000400,-0724,0834,12241,021.0,045.2,0.268,752.3,01.17,0.508
2015-12-26 01:28:00,1883E-3,5C000400,-0724,0833,12206,021.0,045.3,0.268,752.1,01.17,0.508
2015-12-26 01:29:00,1991E-3,5C000400,-0724,0833,12401,021.0,045.2,0.268,752.2,01.17,0.508
2015-12-26 01:30:00,1960E-3,5C000400,-0724,0833,12223,021.0,045.2,0.268,752.2,01.17,0.508
2015-12-26 01:31:00,1842E-3,5C000400,-0724,0833,12049,021.0,045.2,0.268,752.1,01.17,0.508
2015-12-26 01:32:00,1936E-3,5C000400,-0724,0834,12161,021.0,045.2,0.268,752.3,01.17,0.508
2015-12-26 01:33:00,1922E-3,5C000400,-0724,0833,12123,021.0,045.3,0.268,752.2,01.17,0.508
2015-12-26 01:34:00,1940E-3,5C000400,-0724,0834,12044,021.0,045.2,0.267,752.1,01.17,0.508
2015-12-26 01:35:00,1976E-3,5C000400,-0724,0833,12098,021.0,045.2,0.268,752.1,01.17,0.508
2015-12-26 01:36:00,1989E-3,5C000400,-0724,0834,12137,021.0,045.3,0.268,752.0,01.17,0.508
2015-12-26 01:37:00,1966E-3,5C000400,-0724,0834,12045,021.0,045.3,0.268,752.0,01.17,0.508
2015-12-26 01:38:00,1879E-3,5C000400,-0724,0833,12188,021.0,045.3,0.268,752.1,01.17,0.508
2015-12-26 01:39:00,1949E-3,5C000400,-0724,0834,12163,021.0,045.2,0.268,752.1,01.17,0.508
2015-12-26 01:40:00,1949E-3,5C000400,-0724,0834,12287,021.0,045.3,0.268,752.1,01.17,0.508
2015-12-26 01:41:00,2049E-3,5C000400,-0724,0833,12268,021.0,045.2,0.268,752.1,01.17,0.508
2015-12-26 01:42:00,1820E-3,5C000400,-0724,0834,12176,021.0,045.2,0.267,752.2,01.17,0.508
2015-12-26 01:43:00,1870E-3,5C000400,-0724,0834,12256,021.0,045.2,0.267,752.3,01.17,0.508
2015-12-26 01:44:00,1960E-3,5C000400,-0724,0832,12148,021.0,045.3,0.268,752.2,01.17,0.508
2015-12-26 01:45:00,1843E-3,5C000400,-0724,0834,12177,021.0,045.2,0.268,752.4,01.17,0.508
2015-12-26 01:46:00,1935E-3,5C000400,-0724,0833,12224,021.0,045.3,0.268,752.2,01.17,0.508
2015-12-26 01:47:00,1903E-3,5C000400,-0724,0833,12152,021.0,045.2,0.268,752.3,01.17,0.508
2015-12-26 01:48:00,1913E-3,5C000400,-0724,0834,12097,021.0,045.2,0.268,752.3,01.17,0.508
2015-12-26 01:49:00,1940E-3,5C000400,-0724,0834,12191,021.0,045.2,0.268,752.3,01.17,0.508
2015-12-26 01:50:00,1818E-3,5C000400,-0724,0833,12231,021.0,045.2,0.268,752.1,01.17,0.508
2015-12-26 01:51:00,2011E-3,5C000400,-0724,0834,12202,021.0,045.3,0.268,752.2,01.17,0.508
2015-12-26 01:52:00,1965E-3,5C000400,-0724,0834,12242,021.0,045.3,0.268,752.2,01.17,0.508
2015-12-26 01:53:00,1989E-3,5C000400,-0724,0834,12050,021.1,045.3,0.267,752.2,01.17,0.508
2015-12-26 01:54:00,1817E-3,5C000400,-0724,0833,12185,021.0,045.2,0.267,752.2,01.17,0.508
2015-12-26 01:55:00,1965E-3,5C000400,-0724,0833,12040,021.0,045.2,0.268,752.2,01.17,0.508
2015-12-26 01:56:00,1945E-3,5C000400,-0724,0833,12006,021.0,045.2,0.268,752.1,01.17,0.508
2015-12-26 01:57:00,1895E-3,5C000400,-0724,0833,12141,021.1,045.2,0.268,752.1,01.17,0.508
2015-12-26 01:58:00,1793E-3,5C000400,-0724,0833,12120,021.1,045.2,0.268,752.3,01.17,0.508
2015-12-26 01:59:00,1905E-3,5C000400,-0724,0833,12140,021.1,045.3,0.268,752.2,01.17,0.508
2015-12-26 02:00:00,1967E-3,5C000400,-0724,0833,12266,021.1,045.3,0.268,752.4,01.17,0.508
2015-12-26 02:01:00,1834E-3,5C000400,-0724,0833,12278,021.0,045.2,0.268,752.3,01.17,0.508
2015-12-26 02:02:00,1931E-3,5C000400,-0724,0834,12191,021.1,045.3,0.268,752.0,01.17,0.508
2015-12-26 02:03:00,2014E-3,5C000400,-0724,0834,12131,021.1,045.3,0.268,752.2,01.17,0.508
2015-12-26 02:04:00,1839E-3,5C000400,-0724,0833,12139,021.1,045.3,0.268,752.2,01.17,0.508
2015-12-26 02:05:00,1937E-3,5C000400,-0724,0834,12147,021.1,045.2,0.268,751.9,01.17,0.508
2015-12-26 02:06:00,1857E-3,5C000400,-0724,0834,12224,021.0,045.2,0.268,752.1,01.17,0.508
2015-12-26 02:07:00,1909E-3,5C000400,-0724,0834,12131,021.1,045.2,0.268,751.9,01.17,0.508
2015-12-26 02:08:00,2018E-3,5C000400,-0724,0834,12301,021.1,045.2,0.268,751.7,01.17,0.508
2015-12-26 02:09:00,1902E-3,5C000400,-0724,0834,12117,021.1,045.2,0.268,751.6,01.17,0.508
2015-12-26 02:10:00,1920E-3,5C000400,-0724,0834,12164,021.1,045.2,0.267,751.7,01.17,0.508
2015-12-26 02:11:00,1988E-3,5C000400,-0724,0834,12215,021.1,045.3,0.267,751.7,01.17,0.508
2015-12-26 02:12:00,1972E-3,5C000400,-0724,0834,12156,021.1,045.3,0.267,751.7,01.17,0.508
2015-12-26 02:13:00,1764E-3,5C000400,-0724,0834,12214,021.1,045.2,0.268,751.7,01.17,0.508
2015-12-26 02:14:00,1980E-3,5C000400,-0724,0833,12256,021.1,045.2,0.268,751.4,01.17,0.508
2015-12-26 02:15:00,1906E-3,5C000400,-0724,0833,12084,021.1,045.2,0.268,751.4,01.17,0.508
2015-12-26 02:16:00,2021E-3,5C000400,-0724,0834,12309,021.1,045.2,0.268,751.6,01.17,0.508
2015-12-26 02:17:00,2030E-3,5C000400,-0724,0834,12221,021.1,045.2,0.268,751.4,01.17,0.508
2015-12-26 02:18:00,1941E-3,5C000400,-0724,0833,12214,021.1,045.2,0.268,751.6,01.17,0.508
2015-12-26 02:19:00,1932E-3,5C000400,-0724,0833,12249,021.0,045.2,0.268,751.6,01.17,0.508
2015-12-26 02:20:00,1903E-3,5C000400,-0724,0833,12320,021.1,045.3,0.268,751.6,01.17,0.508
2015-12-26 02:21:00,1941E-3,5C000400,-0724,0833,12159,021.1,045.3,0.268,751.6,01.17,0.508
2015-12-26 02:22:00,1871E-3,5C000400,-0724,0833,12185,021.1,045.3,0.267,751.6,01.17,0.508
2015-12-26 02:23:00,1824E-3,5C000400,-0724,0834,12216,021.1,045.2,0.267,751.5,01.17,0.508
2015-12-26 02:24:00,1963E-3,5C000400,-0724,0834,12266,021.1,045.2,0.268,751.4,01.17,0.508
2015-12-26 02:25:00,1905E-3,5C000400,-0724,0834,12218,021.1,045.2,0.268,751.5,01.17,0.508
2015-12-26 02:26:00,1878E-3,5C000400,-0724,0833,12253,021.1,045.3,0.268,751.4,01.17,0.508
2015-12-26 02:27:00,1999E-3,5C000400,-0724,0835,12099,021.1,045.3,0.268,751.2,01.17,0.508
2015-12-26 02:28:00,1959E-3,5C000400,-0724,0833,12181,021.1,045.2,0.268,751.4,01.17,0.508
2015-12-26 02:29:00,1883E-3,5C000400,-0724,0833,12039,021.1,045.2,0.268,751.5,01.17,0.508
2015-12-26 02:30:00,1990E-3,5C000400,-0724,0833,11993,021.1,045.2,0.268,751.6,01.17,0.508
2015-12-26 02:31:00,1808E-3,5C000400,-0724,0834,12229,021.1,045.3,0.268,751.6,01.17,0.508
2015-12-26 02:32:00,2024E-3,5C000400,-0724,0834,12191,021.1,045.3,0.268,751.6,01.17,0.508
2015-12-26 02:33:00,1923E-3,5C000400,-0724,0833,12327,021.1,045.2,0.268,751.6,01.17,0.508
2015-12-26 02:34:00,1993E-3,5C000400,-0724,0833,12142,021.1,045.2,0.267,751.5,01.17,0.508
2015-12-26 02:35:00,1903E-3,5C000400,-0724,0833,12196,021.1,045.3,0.267,751.3,01.17,0.508
2015-12-26 02:36:00,1996E-3,5C000400,-0724,0833,12075,021.1,045.2,0.267,751.5,01.17,0.508
2015-12-26 02:37:00,1973E-3,5C000400,-0724,0834,12195,021.1,045.2,0.268,751.6,01.17,0.508
2015-12-26 02:38:00,1914E-3,5C000400,-0724,0833,12070,021.0,045.2,0.268,751.5,01.17,0.508
2015-12-26 02:39:00,1975E-3,5C000400,-0724,0834,12039,021.1,045.3,0.268,751.5,01.17,0.508
2015-12-26 02:40:00,2045E-3,5C000400,-0724,0834,12204,021.1,045.2,0.268,751.5,01.17,0.508
2015-12-26 02:41:00,1922E-3,5C000400,-0724,0834,12230,021.1,045.3,0.268,751.5,01.17,0.508
2015-12-26 02:42:00,1889E-3,5C000400,-0724,0833,12167,021.1,045.2,0.268,751.6,01.17,0.508
2015-12-26 02:43:00,1962E-3,5C000400,-0724,0833,12168,021.0,045.2,0.267,751.7,01.17,0.508
2015-12-26 02:44:00,1839E-3,5C000400,-0724,0834,12153,021.1,045.3,0.268,751.8,01.17,0.508
2015-12-26 02:45:00,1970E-3,5C000400,-0724,0833,12306,021.1,045.2,0.268,751.9,01.17,0.508
2015-12-26 02:46:00,1999E-3,5C000400,-0724,0833,12133,021.0,045.2,0.268,751.9,01.17,0.508
2015-12-26 02:47:00,1947E-3,5C000400,-0724,0834,12141,021.1,045.3,0.268,751.9,01.17,0.508
2015-12-26 02:48:00,1842E-3,5C000400,-0724,0833,12210,021.1,045.2,0.268,751.8,01.17,0.508
2015-12-26 02:49:00,1952E-3,5C000400,-0724,0834,12145,021.1,045.2,0.268,751.9,01.17,0.508
2015-12-26 02:50:00,1880E-3,5C000400,-0724,0834,12174,021.1,045.3,0.267,752.0,01.17,0.508
2015-12-26 02:51:00,1929E-3,5C000400,-0724,0833,12359,021.1,045.3,0.267,751.7,01.17,0.508
2015-12-26 02:52:00,1985E-3,5C000400,-0724,0833,12187,021.0,045.3,0.268,751.6,01.17,0.508
2015-12-26 02:53:00,1965E-3,5C000400,-0724,0834,12251,021.1,045.3,0.268,751.8,01.17,0.508
2015-12-26 02:54:00,2080E-3,5C000400,-0724,0833,12194,021.0,045.2,0.268,751.8,01.17,0.508
2015-12-26 02:55:00,1802E-3,5C000400,-0724,0834,11998,021.0,045.2,0.268,751.9,01.17,0.508
2015-12-26 02:56:00,1772E-3,5C000400,-0724,0833,12174,021.1,045.3,0.268,751.9,01.17,0.508
2015-12-26 02:57:00,1808E-3,5C000400,-0724,0833,12219,021.0,045.2,0.267,752.0,01.17,0.508
2015-12-26 02:58:00,1935E-3,5C000400,-0724,0834,12131,021.0,045.2,0.267,751.9,01.17,0.508
2015-12-26 02:59:00,2012E-3,5C000400,-0724,0834,12124,021.0,045.3,0.268,751.9,01.17,0.508
2015-12-26 03:00:00,1891E-3,5C000400,-0724,0834,12093,021.0,045.3,0.268,751.9,01.17,0.508
2015-12-26 03:01:00,1934E-3,5C000400,-0724,0833,12217,021.0,045.3,0.268,751.9,01.17,0.508
2015-12-26 03:02:00,1927E-3,5C000400,-0724,0834,12179,021.1,045.3,0.268,751.9,01.17,0.508
2015-12-26 03:03:00,1883E-3,5C000400,-0724,0833,12121,021.0,045.3,0.268,751.9,01.17,0.508
2015-12-26 03:04:00,1926E-3,5C000400,-0724,0834,12148,021.1,045.3,0.268,751.9,01.17,0.508
2015-12-26 03:05:00,1940E-3,5C000400,-0724,0834,12136,021.1,045.3,0.267,751.7,01.17,0.508
2015-12-26 03:06:00,1876E-3,5C000400,-0724,0833,12063,021.0,045.2,0.268,751.7,01.17,0.508
2015-12-26 03:07:00,1915E-3,5C000400,-0724,0833,12091,021.0,045.2,0.268,751.7,01.17,0.508
2015-12-26 03:08:00,1915E-3,5C000400,-0724,0834,12049,021.0,045.2,0.268,751.7,01.17,0.508
2015-12-26 03:09:00,1864E-3,5C000400,-0724,0834,12235,021.1,045.3,0.268,751.7,01.17,0.508
2015-12-26 03:10:00,1910E-3,5C000400,-0724,0833,12206,021.0,045.3,0.268,751.9,01.17,0.508
2015-12-26 03:11:00,1923E-3,5C000400,-0724,0833,12090,021.1,045.3,0.268,751.8,01.17,0.508
2015-12-26 03:12:00,2086E-3,5C000400,-0724,0833,12275,021.1,045.2,0.267,751.8,01.17,0.508
2015-12-26 03:13:00,1837E-3,5C000400,-0724,0832,12168,021.0,045.2,0.268,751.8,01.17,0.508
2015-12-26 03:14:00,1888E-3,5C000400,-0724,0833,12188,021.0,045.3,0.268,751.8,01.17,0.508
2015-12-26 03:15:00,2005E-3,5C000400,-0724,0833,12032,021.0,045.2,0.268,751.9,01.17,0.508
2015-12-26 03:16:00,1944E-3,5C000400,-0724,0834,12077,021.0,045.2,0.268,751.8,01.17,0.508
2015-12-26 03:17:00,1857E-3,5C000400,-0724,0833,12211,021.0,045.3,0.268,751.8,01.17,0.508
2015-12-26 03:18:00,1873E-3,5C000400,-0724,0833,12067,021.0,045.2,0.268,751.7,01.17,0.508
2015-12-26 03:19:00,1841E-3,5C000400,-0724,0833,12076,021.0,045.2,0.268,751.8,01.17,0.508
2015-12-26 03:20:00,1997E-3,5C000400,-0724,0834,12169,021.0,045.2,0.268,751.8,01.17,0.508
2015-12-26 03:21:00,1903E-3,5C000400,-0724,0833,12259,021.0,045.2,0.268,751.6,01.17,0.508
2015-12-26 03:22:00,1984E-3,5C000400,-0724,0833,12160,021.0,045.2,0.267,751.9,01.17,0.508
2015-12-26 03:23:00,1876E-3,5C000400,-0724,0833,12216,021.1,045.2,0.267,751.8,01.17,0.508
2015-12-26 03:24:00,1797E-3,5C000400,-0724,0835,12187,021.0,045.3,0.268,751.9,01.17,0.508
2015-12-26 03:25:00,1866E-3,5C000400,-0724,0833,12068,021.0,045.3,0.268,752.0,01.17,0.508
2015-12-26 03:26:00,1931E-3,5C000400,-0724,0834,12247,021.1,045.3,0.268,752.0,01.17,0.508
2015-12-26 03:27:00,1881E-3,5C000400,-0724,0833,12110,021.0,045.3,0.268,751.9,01.17,0.508
2015-12-26 03:28:00,1832E-3,5C000400,-0724,0833,12074,021.0,045.3,0.268,752.0,01.17,0.508
2015-12-26 03:29:00,1897E-3,5C000400,-0724,0833,12147,021.0,045.2,0.267,752.1,01.17,0.508
2015-12-26 03:30:00,1975E-3,5C000400,-0724,0834,12103,021.1,045.2,0.268,752.0,01.17,0.508
2015-12-26 03:31:00,1891E-3,5C000400,-0724,0834,12194,021.1,045.2,0.268,752.0,01.17,0.508
2015-12-26 03:32:00,1940E-3,5C000400,-0724,0834,12191,021.0,045.2,0.268,752.0,01.17,0.508
2015-12-26 03:33:00,2001E-3,5C000400,-0724,0834,12242,021.0,045.2,0.268,752.1,01.17,0.508
2015-12-26 03:34:00,1872E-3,5C000400,-0724,0834,12199,021.0,045.2,0.268,752.0,01.17,0.508
2015-12-26 03:35:00,2016E-3,5C000400,-0724,0834,12187,021.1,045.2,0.268,752.0,01.17,0.508
2015-12-26 03:36:00,1901E-3,5C000400,-0724,0833,12186,021.0,045.2,0.268,752.1,01.17,0.508
2015-12-26 03:37:00,1936E-3,5C000400,-0724,0833,12210,021.0,045.2,0.267,752.0,01.17,0.508
2015-12-26 03:38:00,1977E-3,5C000400,-0724,0833,12044,021.1,045.3,0.268,752.1,01.17,0.508
2015-12-26 03:39:00,1820E-3,5C000400,-0724,0833,12111,021.0,045.3,0.268,752.0,01.17,0.508
2015-12-26 03:40:00,1972E-3,5C000400,-0724,0834,12240,021.0,045.2,0.268,752.0,01.17,0.508
2015-12-26 03:41:00,1905E-3,5C000400,-0724,0834,12095,021.0,045.3,0.268,751.9,01.17,0.508
2015-12-26 03:42:00,1958E-3,5C000400,-0724,0833,12181,021.1,045.2,0.268,751.8,01.17,0.508
2015-12-26 03:43:00,1947E-3,5C000400,-0724,0833,12164,021.1,045.2,0.268,751.8,01.17,0.508
2015-12-26 03:44:00,1871E-3,5C000400,-0724,0833,12215,021.1,045.2,0.268,751.6,01.17,0.508
2015-12-26 03:45:00,2056E-3,5C000400,-0724,0833,12232,021.1,045.3,0.267,751.8,01.17,0.508
2015-12-26 03:46:00,1782E-3,5C000400,-0724,0833,12153,021.1,045.3,0.267,751.7,01.17,0.508
2015-12-26 03:47:00,1997E-3,5C000400,-0724,0833,12144,021.1,045.3,0.267,751.9,01.17,0.508
2015-12-26 03:48:00,1856E-3,5C000400,-0724,0833,12059,021.1,045.3,0.268,751.9,01.17,0.508
2015-12-26 03:49:00,1929E-3,5C000400,-0724,0833,12082,021.1,045.3,0.268,751.8,01.17,0.508
2015-12-26 03:50:00,2030E-3,5C000400,-0724,0833,12219,021.1,045.3,0.268,751.9,01.17,0.508
2015-12-26 03:51:00,1910E-3,5C000400,-0724,0834,12121,021.1,045.3,0.268,751.9,01.17,0.508
2015-12-26 03:52:00,1882E-3,5C000400,-0724,0834,12274,021.1,045.3,0.268,751.9,01.17,0.508
2015-12-26 03:53:00,1951E-3,5C000400,-0724,0833,12155,021.1,045.3,0.268,751.9,01.17,0.508
2015-12-26 03:54:00,1836E-3,5C000400,-0724,0833,11975,021.1,045.3,0.268,751.6,01.17,0.508
2015-12-26 03:55:00,1923E-3,5C000400,-0724,0833,12222,021.1,045.3,0.267,751.7,01.17,0.508
2015-12-26 03:56:00,2107E-3,5C000400,-0724,0833,12417,021.1,045.2,0.267,751.6,01.17,0.508
2015-12-26 03:57:00,1973E-3,5C000400,-0724,0833,12140,021.1,045.3,0.267,751.7,01.17,0.508
2015-12-26 03:58:00,1866E-3,5C000400,-0724,0833,12111,021.1,045.3,0.267,751.7,01.17,0.508
2015-12-26 03:59:00,1946E-3,5C000400,-0724,0833,12113,021.1,045.3,0.268,751.7,01.17,0.508
2015-12-26 04:00:00,1810E-3,5C000400,-0724,0833,12081,021.1,045.2,0.268,751.7,01.17,0.508
2015-12-26 04:01:00,1990E-3,5C000400,-0724,0834,12085,021.1,045.2,0.268,751.8,01.17,0.508
2015-12-26 04:02:00,1990E-3,5C000400,-0724,0833,12111,021.1,045.3,0.268,751.5,01.17,0.508
2015-12-26 04:03:00,1898E-3,5C000400,-0724,0833,12120,021.1,045.3,0.268,751.5,01.17,0.508
2015-12-26 04:04:00,2012E-3,5C000400,-0724,0833,12222,021.1,045.3,0.268,751.7,01.17,0.508
2015-12-26 04:05:00,1792E-3,5C000400,-0724,0834,12172,021.1,045.2,0.268,751.7,01.17,0.508
2015-12-26 04:06:00,1907E-3,5C000400,-0724,0833,12258,021.1,045.2,0.268,751.7,01.17,0.508
2015-12-26 04:07:00,1838E-3,5C000400,-0724,0833,12176,021.2,045.2,0.268,751.8,01.17,0.508
2015-12-26 04:08:00,1904E-3,5C000400,-0724,0832,12179,021.1,045.3,0.268,751.7,01.17,0.508
2015-12-26 04:09:00,2013E-3,5C000400,-0724,0833,12156,021.1,045.3,0.268,751.7,01.17,0.508
2015-12-26 04:10:00,1930E-3,5C000400,-0724,0833,12109,021.1,045.3,0.268,751.6,01.17,0.508
2015-12-26 04:11:00,1969E-3,5C000400,-0724,0833,12166,021.1,045.2,0.267,751.5,01.17,0.508
2015-12-26 04:12:00,1952E-3,5C000400,-0724,0833,12332,021.1,045.2,0.267,751.6,01.17,0.508
2015-12-26 04:13:00,2037E-3,5C000400,-0724,0833,11907,021.1,045.2,0.268,751.6,01.17,0.508
2015-12-26 04:14:00,1993E-3,5C000400,-0724,0833,12168,021.1,045.3,0.268,751.5,01.17,0.508
2015-12-26 04:15:00,1911E-3,5C000400,-0724,0833,12153,021.2,045.2,0.268,751.5,01.17,0.508
2015-12-26 04:16:00,1922E-3,5C000400,-0724,0834,12140,021.2,045.2,0.268,751.5,01.17,0.508
2015-12-26 04:17:00,1920E-3,5C000400,-0724,0834,12217,021.1,045.2,0.268,751.6,01.17,0.508
2015-12-26 04:18:00,1955E-3,5C000400,-0724,0833,12180,021.2,045.3,0.268,751.5,01.17,0.508
2015-12-26 04:19:00,1876E-3,5C000400,-0724,0833,12307,021.2,045.3,0.268,751.4,01.17,0.508
2015-12-26 04:20:00,1889E-3,5C000400,-0724,0834,12176,021.2,045.3,0.268,751.5,01.17,0.508